EW9304 Weather Reports


time (UTC)temp
F
wind
direction
speed
knots
gust
knots
rain 1hr
in
rain 24hr
in
rain mn
in
humidity
%
barometer
mb
20260504044534 38 289 0.0 0.0 0.00 0.00 0.00 80 1002.4
20260504043031 39 289 0.0 0.0 0.00 0.00 0.00 79 1002.3
20260504041529 39 289 0.0 0.0 0.00 0.00 0.00 77 1002.3
20260504040026 40 289 0.0 0.0 0.00 0.00 0.00 76 1002.3
20260504034526 41 289 0.0 0.0 0.00 0.00 0.00 74 1002.1
20260504033029 42 289 0.0 0.0 0.00 0.00 0.00 71 1002.0
20260504031524 42 289 0.0 0.0 0.00 0.00 0.00 66 1002.0
20260504030024 43 289 0.0 0.0 0.00 0.00 0.00 68 1002.0
20260504024523 43 289 0.0 0.0 0.00 0.00 0.00 69 1001.8
20260504023023 43 289 0.0 0.0 0.00 0.00 0.00 67 1001.8
20260504021522 44 289 0.0 0.0 0.00 0.00 0.00 66 1001.7
20260504020025 45 289 0.0 0.0 0.00 0.00 0.00 62 1001.6
20260504014539 46 289 0.0 0.0 0.00 0.00 0.00 59 1001.5
20260504013021 46 289 0.0 0.0 0.00 0.00 0.00 59 1001.6
20260504011521 47 289 0.0 0.0 0.00 0.00 0.00 53 1001.3
20260504010020 49 289 0.0 0.0 0.00 0.00 0.00 49 1001.2
20260504004520 51 289 0.0 0.0 0.00 0.00 0.00 47 1001.2
20260504003018 53 289 0.0 0.0 0.00 0.00 0.00 41 1001.2
20260504001521 56 289 0.0 0.0 0.00 0.00 0.00 36 1001.0
20260504000035 57 284 0.0 0.0 0.00 0.00 0.00 35 1000.8
20260503234517 59 284 0.0 0.0 0.00 0.00 0.00 33 1000.8
20260503233020 62 278 0.0 0.0 0.00 0.00 0.00 31 1000.6
20260503231516 63 301 0.0 0.9 0.00 0.00 0.00 29 1000.6
20260503230020 64 267 0.0 0.0 0.00 0.00 0.00 29 1000.6
20260503224515 64 18 0.0 0.0 0.00 0.00 0.00 28 1000.4
20260503223013 64 330 0.0 0.0 0.00 0.00 0.00 28 1000.4
20260503221512 64 305 0.0 0.9 0.00 0.00 0.00 28 1000.7
20260503220019 64 214 0.0 9.6 0.00 0.00 0.00 28 1000.6
20260503214522 64 276 0.0 1.7 0.00 0.00 0.00 30 1000.7
20260503213011 64 210 0.0 1.7 0.00 0.00 0.00 28 1000.7
20260503211512 63 293 0.0 0.9 0.00 0.00 0.00 28 1000.7
20260503210028 64 278 0.0 4.3 0.00 0.00 0.00 28 1000.6
20260503204511 64 342 0.0 3.5 0.00 0.00 0.00 27 1000.6
20260503203013 65 303 0.0 1.7 0.00 0.00 0.00 32 1000.7
20260503201506 64 244 0.0 0.0 0.00 0.00 0.00 31 1000.9
20260503200004 64 233 0.0 0.0 0.00 0.00 0.00 27 1001.3
20260503194503 64 314 0.0 5.2 0.00 0.00 0.00 28 1001.4
20260503193002 64 293 0.0 0.0 0.00 0.00 0.00 30 1001.5
20260503191608 64 294 0.0 0.9 0.00 0.00 0.00 30 1001.8
20260503190103 63 321 0.0 5.2 0.00 0.00 0.00 31 1002.0
20260503184600 62 296 0.0 0.9 0.00 0.00 0.00 33 1002.1
20260503183105 61 279 0.0 0.0 0.00 0.00 0.00 29 1002.3
20260503181553 61 252 0.0 6.1 0.00 0.00 0.00 32 1002.3
20260503180105 60 339 1.7 9.6 0.00 0.00 0.00 29 1002.6
20260503174551 60 189 1.7 11.3 0.00 0.00 0.00 32 1002.7
20260503173136 59 172 0.0 10.4 0.00 0.00 0.00 36 1002.8
20260503171548 59 118 0.0 6.1 0.00 0.00 0.00 38 1003.1
20260503120113 44 283 0.0 0.0 0.00 0.00 0.00 63 1004.5
20260503081532 39 277 0.0 0.0 0.00 0.00 0.00 73 1002.3
20260503071519 43 293 0.0 0.0 0.00 0.00 0.00 67 1001.8
20260503054555 43 304 0.0 0.0 0.00 0.00 0.00 70 1001.5
20260503053050 42 282 0.0 0.0 0.00 0.00 0.00 70 1001.5